GW4311 Weather Reports


time (UTC)temp
F
wind
direction
speed
knots
gust
knots
rain 1hr
in
rain 24hr
in
rain mn
in
humidity
%
barometer
mb
20260831090038 65 254 7.0 15.6 0.01 0.17 0.15 81 1019.0
20260831084539 64 238 7.0 15.6 0.04 0.17 0.15 82 1018.9
20260831083031 63 196 7.0 15.6 0.14 0.17 0.15 88 1018.6
20260831081535 61 265 7.0 11.3 0.13 0.17 0.14 92 1018.6
20260831080053 60 246 6.1 12.2 0.14 0.17 0.14 91 1018.5
20260831074524 61 248 7.0 10.4 0.11 0.13 0.11 89 1018.4
20260831073052 61 223 7.0 10.4 0.01 0.03 0.01 89 1018.1
20260831071520 61 185 3.5 8.7 0.01 0.03 0.01 90 1017.8
20260831070024 62 217 4.3 9.6 0.00 0.02 0.00 89 1017.9
20260831064517 61 208 6.1 11.3 0.00 0.02 0.00 88 1017.8
20260831063023 61 167 3.5 7.8 0.00 0.02 0.00 89 1017.6
20260831061514 61 153 6.1 13.0 0.00 0.02 0.00 88 1017.5
20260831060017 61 234 5.2 9.6 0.00 0.02 0.00 87 1017.4
20260831054515 61 165 4.3 12.2 0.00 0.02 0.00 88 1017.2
20260831053009 60 160 1.7 9.6 0.00 0.02 0.00 89 1017.1
20260831051505 60 225 4.3 9.6 0.00 0.02 0.00 90 1017.0
20260831050004 59 203 3.5 7.8 0.00 0.02 0.00 90 1016.9
20260831044501 60 247 1.7 8.7 0.00 0.02 0.00 89 1017.0
20260831043102 60 265 3.5 8.7 0.00 0.02 0.00 88 1016.8
20260831041609 60 201 3.5 9.6 0.00 0.02 0.00 88 1016.9
20260831040059 60 201 5.2 12.2 0.00 0.02 0.00 88 1016.9
20260831034604 60 254 4.3 10.4 0.00 0.02 0.00 88 1016.9
20260831033056 60 248 3.5 10.4 0.00 0.02 0.00 87 1016.9
20260831031555 61 254 1.7 11.3 0.00 0.02 0.00 86 1016.8
20260831030059 61 187 4.3 9.6 0.00 0.02 0.00 86 1016.7
20260831024552 61 221 4.3 12.2 0.00 0.02 0.00 86 1016.6
20260831023051 61 200 6.1 17.4 0.00 0.02 0.00 87 1016.6
20260831021551 61 186 5.2 9.6 0.00 0.02 0.00 87 1016.5
20260831020050 61 196 5.2 10.4 0.00 0.02 0.00 87 1016.5
20260831014547 61 200 2.6 11.3 0.00 0.02 0.00 87 1016.5
20260831013053 61 178 4.3 10.4 0.00 0.02 0.00 87 1016.4
20260831011548 61 208 6.1 10.4 0.00 0.02 0.00 87 1016.5
20260831004542 62 178 3.5 11.3 0.00 0.02 0.00 86 1016.4
20260831003045 61 173 1.7 10.4 0.00 0.02 0.00 86 1016.4
20260831001541 61 191 3.5 11.3 0.00 0.02 0.00 86 1016.3
20260831000039 61 175 5.2 9.6 0.00 0.02 0.00 87 1016.4
20260830234537 61 151 3.5 9.6 0.00 0.02 0.00 87 1016.4
20260830233036 61 186 5.2 9.6 0.00 0.02 0.00 88 1016.5
20260830231537 61 141 3.5 11.3 0.00 0.02 0.00 88 1016.4
20260830230034 61 168 5.2 9.6 0.00 0.02 0.00 88 1016.2
20260830224530 61 221 2.6 8.7 0.00 0.02 0.00 88 1016.3
20260830223028 61 192 4.3 13.0 0.00 0.02 0.00 89 1016.3
20260830221526 61 208 4.3 8.7 0.00 0.02 0.00 89 1016.3
20260830220031 61 158 3.5 10.4 0.00 0.02 0.00 89 1016.2
20260830214526 61 175 5.2 12.2 0.00 0.02 0.02 88 1016.0
20260830213022 61 200 2.6 9.6 0.00 0.02 0.02 88 1016.0
20260830211522 61 210 3.5 10.4 0.00 0.02 0.02 88 1016.0
20260830210022 61 146 3.5 9.6 0.00 0.02 0.02 87 1015.8
20260830204530 61 193 4.3 9.6 0.00 0.02 0.02 87 1015.8
20260830203020 61 169 4.3 9.6 0.00 0.02 0.02 87 1015.6
20260830201520 61 205 3.5 10.4 0.00 0.02 0.02 87 1015.7
20260830200019 62 185 3.5 9.6 0.00 0.02 0.02 86 1015.4
20260830194518 62 158 3.5 10.4 0.00 0.02 0.02 85 1015.4
20260830193017 63 178 3.5 7.8 0.00 0.02 0.02 85 1015.4
20260830191517 63 148 4.3 12.2 0.00 0.02 0.02 84 1015.1
20260830190017 63 196 4.3 8.7 0.00 0.02 0.02 83 1015.0
20260830184516 64 142 4.3 11.3 0.00 0.02 0.02 83 1014.8
20260830183019 64 207 6.1 11.3 0.00 0.02 0.02 82 1014.6
20260830181516 64 242 3.5 8.7 0.00 0.02 0.02 83 1014.6
20260830180015 65 154 6.1 12.2 0.00 0.02 0.02 81 1014.6
20260830174523 65 169 5.2 10.4 0.00 0.02 0.02 80 1014.7
20260830173014 65 178 6.1 11.3 0.00 0.02 0.02 80 1014.7
20260830171514 66 156 6.1 11.3 0.00 0.02 0.02 83 1014.6
20260830170014 66 161 6.1 13.0 0.00 0.02 0.02 84 1014.4
20260830164516 66 171 7.0 13.0 0.02 0.02 0.02 83 1014.3
20260830163018 66 175 5.2 9.6 0.02 0.02 0.02 86 1014.4
20260830161512 66 165 5.2 9.6 0.02 0.02 0.02 87 1014.2
20260830160013 66 205 2.6 7.8 0.02 0.02 0.02 85 1014.5
20260830154513 67 150 7.0 12.2 0.01 0.01 0.01 81 1014.6
20260830153027 69 217 3.5 11.3 0.00 0.00 0.00 76 1014.6
20260830151528 69 165 6.1 12.2 0.00 0.00 0.00 74 1014.5
20260830150010 70 203 7.0 12.2 0.00 0.00 0.00 70 1014.5
20260830144509 71 248 6.1 12.2 0.00 0.01 0.00 64 1014.5
20260830143009 72 214 4.3 13.0 0.00 0.01 0.00 62 1014.7
20260830141509 72 151 5.2 11.3 0.00 0.01 0.00 61 1014.5
20260830140008 73 137 5.2 12.2 0.00 0.01 0.00 60 1014.4
20260830134514 74 153 7.0 12.2 0.00 0.03 0.00 59 1014.6
20260830133006 74 215 4.3 9.6 0.00 0.03 0.00 59 1014.7
20260830131504 73 294 4.3 8.7 0.00 0.03 0.00 59 1014.7
20260830130002 73 196 4.3 9.6 0.00 0.03 0.00 60 1015.0
20260830124502 72 229 1.7 11.3 0.00 0.03 0.00 60 1015.1
20260830123002 73 309 5.2 15.6 0.00 0.03 0.00 56 1015.2
20260830121601 74 177 5.2 12.2 0.00 0.03 0.00 57 1015.1
20260830120106 73 252 5.2 13.0 0.00 0.03 0.00 57 1015.5
20260830114555 73 215 5.2 13.0 0.00 0.03 0.00 57 1015.5
20260830113053 74 171 6.1 19.1 0.00 0.03 0.00 55 1015.6
20260830111549 73 198 6.1 15.6 0.00 0.03 0.00 56 1015.8
20260830110048 72 259 6.1 16.5 0.00 0.03 0.00 60 1015.8
20260830104546 72 198 6.1 12.2 0.00 0.03 0.00 60 1016.0
20260830103043 69 194 4.3 12.2 0.00 0.03 0.00 66 1015.8
20260830101554 70 237 7.8 13.9 0.00 0.03 0.00 65 1016.1
20260830100039 70 200 7.0 13.0 0.00 0.03 0.00 67 1016.2
20260830094535 69 207 5.2 11.3 0.00 0.03 0.00 71 1016.4
20260830093031 68 194 6.1 12.2 0.00 0.03 0.00 72 1016.3
20260830091528 67 229 4.3 9.6 0.00 0.03 0.00 78 1016.4